Weather History for Plattsburgh, NY

Change the Weather History Date:

Saturday, June 1, 2013

  Actual Average Record
Temperature  
Mean Temperature 75 °F 61 °F  
Max Temperature 90 °F 72 °F 90 °F (2013)
Min Temperature 60 °F 50 °F 38 °F (1967)
Cooling Degree Days 10 1  
Month to date cooling degree days 10 1  
Year to date cooling degree days 30 9  
Since 1 June cooling degree days 10 1  
Growing Degree Days 26 (Base 50)    
Moisture  
Dew Point 64 °F    
Average Humidity 66    
Maximum Humidity 93    
Minimum Humidity 38    
Precipitation  
Precipitation 0.45 in - 2.43 in (1972)
Month to date precipitation 0.45  
Year to date precipitation 9.64  
Sea Level Pressure  
Sea Level Pressure 29.83 in    
Wind  
Wind Speed 5 mph (SSE)    
Max Wind Speed 18 mph    
Max Gust Speed 25 mph    
Visibility 9 miles    
Events Rain , Thunderstorm    
T = Trace of Precipitation, MM = Missing Value Source: NWS Daily Summary

Daily Weather History Graph

Daily Weather History Graph

Search for Another Location

Airport:

Trip Planner

Search our weather history database for the weather conditions in past years. The results will help you decide how hot, cold, wet, or windy it might be!

Date:

Astronomy

Jun. 01, 2013 Rise Set
Actual Time 5:11 AM EDT 8:32 PM EDT
Civil Twilight 4:35 AM EDT 9:08 PM EDT
Nautical Twilight 3:48 AM EDT 9:55 PM EDT
Astronomical Twilight 2:50 AM EDT 10:54 PM EDT
Moon 1:22 AM EDT 1:44 PM EDT
Length of Visible Light 16h 32m
Length of Day
15h 20m
Last Quarter, 41% of the Moon is Illuminated
Jun 1
Last Quarter
Jun 8
New
Jun 16
First Quarter
Jun 23
Full
Jun 30
Last Quarter

Hourly Weather History & Observations

Time (EDT) Temp. Heat Index Dew Point Humidity Pressure Visibility Wind Dir Wind Speed Gust Speed Precip Events Conditions
12:53 AM 66.0 °F - 61.0 °F 84% 29.90 in 10.0 mi Calm Calm - N/A   Clear
1:53 AM 63.0 °F - 60.1 °F 90% 29.89 in 10.0 mi Calm Calm - N/A   Clear
2:53 AM 63.0 °F - 61.0 °F 93% 29.89 in 10.0 mi Calm Calm - N/A   Clear
3:53 AM 66.9 °F - 60.1 °F 79% 29.88 in 10.0 mi SW 3.5 mph - N/A   Mostly Cloudy
4:53 AM 64.9 °F - 60.1 °F 84% 29.88 in 10.0 mi Calm Calm - N/A   Clear
5:53 AM 71.1 °F - 60.1 °F 68% 29.88 in 10.0 mi Calm Calm - N/A   Clear
6:53 AM 66.0 °F - 60.1 °F 81% 29.90 in 10.0 mi ESE 3.5 mph - N/A   Mostly Cloudy
7:53 AM 66.0 °F - 60.1 °F 81% 29.91 in 10.0 mi Calm Calm - N/A   Mostly Cloudy
8:53 AM 73.9 °F - 64.0 °F 71% 29.91 in 10.0 mi East 4.6 mph - N/A   Scattered Clouds
9:53 AM 75.9 °F - 64.9 °F 69% 29.89 in 10.0 mi SE 9.2 mph - N/A   Clear
10:53 AM 78.1 °F - 66.0 °F 66% 29.87 in 10.0 mi SE 11.5 mph - N/A   Clear
11:53 AM 78.1 °F - 64.9 °F 64% 29.85 in 10.0 mi SE 12.7 mph - N/A   Mostly Cloudy
12:53 PM 77.0 °F - 64.0 °F 64% 29.83 in 10.0 mi SE 12.7 mph - N/A   Scattered Clouds
1:53 PM 84.0 °F 86.5 °F 66.9 °F 56% 29.79 in 10.0 mi SSE 15.0 mph 21.9 mph N/A   Partly Cloudy
2:53 PM 86.0 °F 89.4 °F 68.0 °F 55% 29.78 in 10.0 mi SSE 8.1 mph - N/A   Partly Cloudy
3:53 PM 89.1 °F 89.0 °F 61.0 °F 39% 29.77 in 10.0 mi Variable 6.9 mph - N/A   Clear
4:53 PM 90.0 °F 90.3 °F 62.1 °F 39% 29.77 in 10.0 mi Variable 5.8 mph - N/A   Partly Cloudy
5:53 PM 79.0 °F - 69.1 °F 72% 29.78 in 10.0 mi WNW 6.9 mph - 0.01 in Rain Light Rain
6:53 PM 80.1 °F 82.7 °F 68.0 °F 67% 29.75 in 10.0 mi SE 3.5 mph - 0.00 in   Clear
7:53 PM 79.0 °F - 66.9 °F 66% 29.76 in 10.0 mi SSW 4.6 mph - N/A   Scattered Clouds
8:53 PM 75.0 °F - 68.0 °F 79% 29.75 in 10.0 mi Calm Calm - N/A   Partly Cloudy
9:08 PM 75.2 °F - 68.0 °F 78% 29.77 in 10.0 mi West 4.6 mph - N/A Thunderstorm Scattered Clouds
9:53 PM 71.1 °F - 68.0 °F 90% 29.82 in 9.0 mi Variable 3.5 mph - 0.10 in Rain , Thunderstorm Light Rain
10:03 PM 71.6 °F - 68.0 °F 88% 29.82 in 4.0 mi South 4.6 mph - 0.03 in Rain Rain
10:53 PM 70.0 °F - 66.9 °F 90% 29.82 in 4.0 mi Variable 4.6 mph - 0.13 in Rain Rain
11:25 PM 69.8 °F - 66.2 °F 88% 29.80 in 7.0 mi Variable 4.6 mph - 0.10 in Rain , Thunderstorm Light Rain
11:40 PM 69.8 °F - 66.2 °F 88% 29.79 in 7.0 mi South 4.6 mph - 0.14 in Rain Light Rain
11:53 PM 69.1 °F - 66.0 °F 90% 29.78 in 6.0 mi SSW 5.8 mph - 0.16 in Rain Light Rain